Lid_Strength_Index
4 4 5 5 5 6 6 2 5 1 1 7 6 6 5 6 5 4 4 5 5 6 6 6 7 7 5 4 4 6 5 6 8 7 5 5 5 6 7 9 9 8 9 11
4 4 4 5 5 6 3 4 3 2 3 8 6 4 5 4 5 5 5 5 5 5 6 7 6 6 4 4 5 5 5 7 9 8 6 5 6 6 6 6 7 9 10 13
4 4 4 4 5 5 3 3 5 4 4 4 5 5 5 6 4 4 4 5 4 5 6 5 7 6 5 4 4 3 4 6 7 9 8 6 7 7 6 7 9 8 8 11
4 4 4 4 5 5 3 3 5 4 6 5 5 4 5 6 6 4 4 5 5 6 7 6 7 5 5 5 6 5 5 7 6 6 6 6 7 7 7 7 7 8 8 10
4 4 4 4 5 5 2 5 5 3 4 4 5 7 5 6 5 5 6 6 5 5 6 6 7 6 5 6 5 5 5 8 7 8 6 6 7 7 6 6 6 7 6 9
4 4 4 4 5 5 2 2 1 4 6 5 5 5 5 5 4 5 4 5 5 5 5 4 4 4 4 4 5 6 6 7 8 10 7 7 9 7 7 6 6 6 8 6
3 4 4 5 5 5 2 2 2 5 6 5 5 5 5 5 5 5 5 4 5 4 3 3 3 4 4 4 4 4 6 7 8 10 8 12 7 5 6 6 6 5 6 6
3 3 3 4 5 5 2 1 2 4 6 4 5 5 5 5 4 5 5 4 3 2 3 6 7 7 6 6 5 5 4 6 9 11 10 8 7 7 6 7 7 5 6 6
3 3 3 3 4 5 3 1 1 2 5 5 4 5 5 6 5 5 5 3 2 3 5 6 9 10 8 8 7 5 5 5 8 9 11 12 7 6 5 5 10 5 5 6
3 3 3 3 3 4 4 1 1 2 5 3 3 5 6 4 5 5 4 4 4 3 6 8 8 9 6 9 9 9 8 8 9 9 10 8 6 5 5 10 9 5 5 5
4 3 3 3 3 3 3 2 0 2 4 4 4 3 4 4 4 6 5 5 5 5 7 8 8 8 7 8 7 8 9 9 9 9 10 11 5 5 8 7 5 5 4 4
4 3 3 3 3 3 4 3 1 0 3 3 2 2 2 2 2 4 4 5 5 5 7 6 6 8 6 7 10 5 9 7 8 8 9 6 4 5 4 4 5 4 4 4
4 3 3 3 3 3 4 2 1 1 3 3 2 3 1 1 0 0 5 3 3 4 3 5 6 7 6 8 8 7 5 5 7 7 5 6 5 4 3 3 4 3 3 3
3 3 3 3 3 3 4 2 1 1 3 5 3 0 2 0 0 1 1 2 2 2 3 5 6 7 4 7 6 6 6 5 7 6 5 5 5 4 4 3 3 3 3 3
4 3 3 3 3 3 3 1 -0 -1 3 6 4 2 2 1 0 1 1 2 2 3 5 5 6 5 5 5 5 7 4 5 7 8 5 5 5 3 3 3 3 3 3 4
4 4 4 4 4 4 2 3 -1 -1 0 4 6 2 2 2 1 2 2 2 2 3 4 5 4 3 5 7 8 4 4 3 3 5 4 4 3 3 2 3 3 2 3 4
4 4 5 5 4 2 3 3 2 3 0 4 6 5 2 2 2 2 2 2 3 3 4 5 4 4 5 6 8 4 3 3 3 3 3 4 4 4 2 2 3 3 3 3
4 5 5 4 4 4 3 1 2 3 2 3 6 6 5 2 4 5 2 4 3 4 4 4 5 4 5 8 5 4 3 3 3 3 3 3 3 2 2 3 3 3 3 3
5 4 3 1 1 3 2 1 1 -1 2 6 5 7 7 3 4 4 4 3 6 3 5 5 5 6 7 5 5 4 3 4 4 3 3 3 3 3 3 2 3 3 3 3
4 2 2 5 2 3 1 1 3 3 3 3 6 4 6 3 3 6 6 6 6 7 7 4 6 7 4 3 3 3 3 3 3 4 4 4 4 3 3 3 2 2 2 2
2 2 3 1 1 1 3 5 6 5 7 5 4 4 6 2 6 7 5 7 6 10 8 8 8 8 6 3 3 2 2 2 2 2 2 2 2 3 3 3 2 2 2 2
5 4 3 1 3 4 7 7 5 6 8 4 5 5 4 3 2 6 6 8 7 11 6 8 10 8 5 4 4 3 2 2 2 2 2 2 2 2 2 2 2 2 2 1
2 4 4 4 4 11 10 11 8 9 5 4 5 7 4 3 3 6 7 10 10 6 10 9 8 6 4 4 3 3 2 2 3 2 2 2 2 2 2 2 1 1 2 1
4 5 12 7 8 7 8 7 7 5 4 5 5 6 5 5 6 7 10 8 7 11 12 10 9 6 5 4 3 3 3 3 3 3 3 3 3 2 2 1 1 1 2 1
5 5 11 7 4 3 3 3 4 4 3 4 5 6 6 6 7 6 7 9 11 9 9 8 6 5 4 4 3 3 3 3 4 3 4 4 3 2 2 1 1 1 1 1
4 5 6 5 5 5 4 4 6 3 3 4 5 7 9 9 7 9 10 10 12 9 6 5 5 4 4 3 3 3 3 3 3 3 3 2 2 2 2 1 1 1 1 1
6 6 3 4 5 5 4 3 4 2 4 6 6 10 10 6 8 9 7 9 7 6 6 4 3 4 4 3 3 3 3 3 3 3 3 2 1 1 2 2 1 2 1 1